Location: Franzen
(48.6167°N, 15.3833°E)
Time: 20:35:21
(UTC+00:00)

Transit 2A - Pass Details

Date: 12 August 2021
Orbit: 594 x 964 km, 66.7° (Epoch: 27 September)

Event Time Altitude Azimuth Distance (km) Brightness Sun altitude
Rises 11:05:07 0° 323° (NW) 3,267 9.0 56.2°
Reaches altitude 10° 11:07:26 10° 323° (NW) 2,391 8.4 56.2°
Maximum altitude 11:12:58 79° 238° (WSW) 885 7.7 56.1°
Drops below altitude 10° 11:19:03 10° 152° (SSE) 2,606 9.3 56.1°
Sets 11:21:40 0° 151° (SSE) 3,581 9.9 56.0°
